"# Mixing ratio of CO2 (xCO2) in dry air measured onboard R/V Hakuho-maru of the Ocean Research Institue, the University of Tokyo.",,,,,,,,,,,,,,,,,,,,,,
# Version 1.2; 02 Mar. 2008.,,,,,,,,,,,,,,,,,,,,,,
# Measured by Meteorological Research Institute. ,,,,,,,,,,,,,,,,,,,,,,
# PI : H. Y. Inoue,,,,,,,,,,,,,,,,,,,,,,
# Concetrarion scale = MRI87,,,,,,,,,,,,,,,,,,,,,,
# Time = UTC,,,,,,,,,,,,,,,,,,,,,,
# ,,,,,,,,,,,,,,,,,,,,,,
Ship,Cruise,Serial No.,Date,,,Time,,Latitude,Longitude,xCO2_Air,F,xCO2_Sea,F,Wind_Dir,Wind_Spd,Atm_Prs,Atm_Tmp.,SST,F,SSS,F,pH2O
,,,Year,Month,Day,Hour,Min.,Deg.,Deg.,ppm,,ppm,,Deg.,m/s,hPa,deg.C,deg.C,,,,hPa
Hakuho-maru,KH85-3,2,1985,5,31,12,,34.317,139.417,350.1,2,308.6,2,-99,-9.9,1011.9,-99.9,22.4,2,-9.999,9,26.57
Hakuho-maru,KH85-3,3,1985,5,31,13,,34.15,139.317,350.1,2,305.7,2,-99,-9.9,1011.7,-99.9,22.6,2,-9.999,9,26.9
Hakuho-maru,KH85-3,4,1985,5,31,14,,33.967,139.233,349.4,2,306.3,2,-99,-9.9,1011.5,-99.9,22.9,2,-9.999,9,27.39
Hakuho-maru,KH85-3,5,1985,5,31,15,,33.783,139.133,349,2,298,2,-99,-9.9,1010.9,-99.9,23.2,2,-9.999,9,27.9
Hakuho-maru,KH85-3,6,1985,5,31,16,,33.617,139.1,349.6,2,304.3,2,-99,-9.9,1009.8,-99.9,22.3,2,-9.999,9,26.41
Hakuho-maru,KH85-3,7,1985,5,31,17,,33.467,139.083,348.7,2,315.2,2,-99,-9.9,1009.7,-99.9,22.7,2,-9.999,9,27.06
Hakuho-maru,KH85-3,8,1985,5,31,18,,33.3,139.05,351,3,317.2,2,-99,-9.9,1009.9,-99.9,23.7,2,-9.999,9,28.75
Hakuho-maru,KH85-3,9,1985,5,31,19,,33.133,139.017,348.5,2,316.7,2,-99,-9.9,1009.5,-99.9,23.8,2,-9.999,9,28.92
Hakuho-maru,KH85-3,10,1985,5,31,20,,33.133,138.967,349.1,2,321.8,2,-99,-9.9,1009.6,-99.9,23.3,2,-9.999,9,28.06
Hakuho-maru,KH85-3,11,1985,5,31,21,,33.133,138.933,349.6,2,308.1,2,-99,-9.9,1009.9,-99.9,23.5,2,-9.999,9,28.41
Hakuho-maru,KH85-3,12,1985,5,31,22,,33.133,138.883,353.1,3,318.2,2,-99,-9.9,1010.1,-99.9,23.6,2,-9.999,9,28.58
Hakuho-maru,KH85-3,13,1985,5,31,23,,33.133,138.833,351.4,3,318.6,2,-99,-9.9,1010.9,-99.9,23.7,2,-9.999,9,28.75
Hakuho-maru,KH85-3,14,1985,6,1,0,,33.183,138.7,347.8,2,300,2,-99,-9.9,1011.4,-99.9,23.1,2,-9.999,9,27.73
Hakuho-maru,KH85-3,15,1985,6,1,1,,33.183,138.583,349.6,2,296.7,2,-99,-9.9,1012.1,-99.9,20.6,2,-9.999,9,23.8
Hakuho-maru,KH85-3,16,1985,6,1,2,,33.3,138.45,354.8,3,296.3,2,-99,-9.9,1012.4,-99.9,20.4,2,-9.999,9,23.51
Hakuho-maru,KH85-3,17,1985,6,1,3,,33.35,138.317,348.2,2,297.2,2,-99,-9.9,1012.6,-99.9,20.4,2,-9.999,9,23.51
Hakuho-maru,KH85-3,18,1985,6,1,4,,33.367,138.25,348.7,2,298.1,2,-99,-9.9,1012.4,-99.9,20.3,2,-9.999,9,23.36
Hakuho-maru,KH85-3,19,1985,6,1,5,,33.4,138.2,352.8,3,301.1,2,-99,-9.9,1012.3,-99.9,20.5,2,-9.999,9,23.65
Hakuho-maru,KH85-3,20,1985,6,1,6,,33.417,138.133,347.8,2,298.1,2,-99,-9.9,1011.8,-99.9,19.9,2,-9.999,9,22.79
Hakuho-maru,KH85-3,21,1985,6,1,7,,33.433,138.067,348.4,2,298.9,2,-99,-9.9,1012.5,-99.9,20.8,2,-9.999,9,24.1
Hakuho-maru,KH85-3,22,1985,6,1,8,,33.467,138.017,347.9,2,301.8,2,-99,-9.9,1013,-99.9,20.8,2,-9.999,9,24.1
Hakuho-maru,KH85-3,23,1985,6,1,9,,33.5,137.95,348.1,2,305.5,2,-99,-9.9,1013.1,-99.9,20.7,2,-9.999,9,23.95
Hakuho-maru,KH85-3,24,1985,6,1,10,,33.517,137.9,348.7,2,305.5,2,-99,-9.9,1013.5,-99.9,20.6,2,-9.999,9,23.8
Hakuho-maru,KH85-3,25,1985,6,1,11,,33.55,137.833,349.3,2,304.2,2,-99,-9.9,1013.9,-99.9,20.4,2,-9.999,9,23.51
Hakuho-maru,KH85-3,26,1985,6,1,12,,33.617,137.783,347.9,2,301,2,-99,-9.9,1014.3,-99.9,20.5,2,-9.999,9,23.65
Hakuho-maru,KH85-3,27,1985,6,1,13,,33.7,137.733,347.6,2,302.3,2,-99,-9.9,1014.8,-99.9,20.3,2,-9.999,9,23.36
Hakuho-maru,KH85-3,28,1985,6,1,14,,33.767,137.683,347.9,2,307,2,-99,-9.9,1014.5,-99.9,20.9,2,-9.999,9,24.25
Hakuho-maru,KH85-3,29,1985,6,1,15,,33.833,137.633,348.6,2,302.9,2,-99,-9.9,1014.8,-99.9,20.9,2,-9.999,9,24.25
Hakuho-maru,KH85-3,30,1985,6,1,16,,33.833,137.517,347.4,2,312,2,-99,-9.9,1014.8,-99.9,20.5,2,-9.999,9,23.65
Hakuho-maru,KH85-3,31,1985,6,1,17,,33.817,137.417,347.6,2,313.9,2,-99,-9.9,1014.9,-99.9,20.7,2,-9.999,9,23.95
Hakuho-maru,KH85-3,32,1985,6,1,18,,33.817,137.3,346.7,3,314.7,2,-99,-9.9,1014.7,-99.9,20.3,2,-9.999,9,23.36
Hakuho-maru,KH85-3,33,1985,6,1,19,,33.8,137.183,346.6,3,309.7,2,-99,-9.9,1014.9,-99.9,19.9,2,-9.999,9,22.79
Hakuho-maru,KH85-3,34,1985,6,1,20,,33.683,136.967,355.3,3,310.6,2,-99,-9.9,1015.1,-99.9,20,2,-9.999,9,22.93
Hakuho-maru,KH85-3,35,1985,6,1,21,,33.567,136.75,353.1,3,310.5,2,-99,-9.9,1015.5,-99.9,19.8,2,-9.999,9,22.65
Hakuho-maru,KH85-3,36,1985,6,1,22,,33.45,136.533,353.6,3,313.8,2,-99,-9.9,1015.8,-99.9,22.8,2,-9.999,9,27.23
Hakuho-maru,KH85-3,37,1985,6,1,23,,33.333,136.317,350.4,3,288.1,4,-99,-9.9,1016.2,-99.9,22.7,2,-9.999,9,27.06
Hakuho-maru,KH85-3,38,1985,6,2,0,,33.217,136.15,349.9,3,297.4,2,-99,-9.9,1016,-99.9,21.2,2,-9.999,9,24.7
Hakuho-maru,KH85-3,39,1985,6,2,1,,33.117,135.983,349.5,3,312.9,2,-99,-9.9,1015.8,-99.9,23.4,2,-9.999,9,28.23
Hakuho-maru,KH85-3,40,1985,6,2,2,,33,135.8,348.2,2,306,2,-99,-9.9,1015.8,-99.9,22.8,2,-9.999,9,27.23
Hakuho-maru,KH85-3,41,1985,6,2,3,,32.883,135.633,347.8,2,300,2,-99,-9.9,1015.7,-99.9,22.7,2,-9.999,9,27.06
Hakuho-maru,KH85-3,42,1985,6,2,4,,32.767,135.45,351.6,3,305.8,2,-99,-9.9,1015.2,-99.9,22.6,2,-9.999,9,26.9
Hakuho-maru,KH85-3,43,1985,6,2,5,,32.667,135.267,348.3,2,312.3,2,-99,-9.9,1015.4,-99.9,23.5,2,-9.999,9,28.41
Hakuho-maru,KH85-3,44,1985,6,2,6,,32.55,135.067,347.8,2,315.7,2,-99,-9.9,1014.2,-99.9,24.5,2,-9.999,9,30.16
Hakuho-maru,KH85-3,45,1985,6,2,7,,32.433,134.883,343.9,3,307.4,2,-99,-9.9,1013.5,-99.9,23.9,2,-9.999,9,29.1
Hakuho-maru,KH85-3,46,1985,6,2,8,,32.35,134.7,348,2,304.4,2,-99,-9.9,1013.8,-99.9,22.1,2,-9.999,9,26.09
Hakuho-maru,KH85-3,47,1985,6,2,9,,32.25,134.517,347.8,2,305.3,2,-99,-9.9,1013.8,-99.9,21.9,2,-9.999,9,25.78
Hakuho-maru,KH85-3,48,1985,6,2,10,,32.167,134.333,349,2,306.6,2,-99,-9.9,1013.5,-99.9,21.9,2,-9.999,9,25.78
Hakuho-maru,KH85-3,49,1985,6,2,11,,32.067,134.15,348.4,2,306.6,2,-99,-9.9,1013.2,-99.9,21.8,2,-9.999,9,25.62
Hakuho-maru,KH85-3,50,1985,6,2,12,,31.933,133.967,347.8,2,306.3,2,-99,-9.9,1013.8,-99.9,21.8,2,-9.999,9,25.62
Hakuho-maru,KH85-3,51,1985,6,2,13,,31.8,133.8,347.3,2,307,2,-99,-9.9,1014.5,-99.9,21.8,2,-9.999,9,25.62
Hakuho-maru,KH85-3,52,1985,6,2,14,,31.667,133.617,347.4,2,306.9,2,-99,-9.9,1014.4,-99.9,21.9,2,-9.999,9,25.78
Hakuho-maru,KH85-3,53,1985,6,2,15,,31.533,133.433,348,2,304.9,2,-99,-9.9,1013.7,-99.9,21.7,2,-9.999,9,25.46
Hakuho-maru,KH85-3,54,1985,6,2,16,,31.417,133.25,348.3,2,306.1,2,-99,-9.9,1012.1,-99.9,21.7,2,-9.999,9,25.46
Hakuho-maru,KH85-3,55,1985,6,2,17,,31.3,133.067,347.9,2,308.7,2,-99,-9.9,1011.5,-99.9,21.8,2,-9.999,9,25.62
Hakuho-maru,KH85-3,57,1985,6,28,23,,29.15,137,345.4,2,363.6,2,-99,-9.9,1010.4,-99.9,25.5,2,-9.999,9,32.02
Hakuho-maru,KH85-3,58,1985,6,29,0,,29.367,137.083,345.5,2,361.4,2,-99,-9.9,1011.3,-99.9,26,2,-9.999,9,32.98
Hakuho-maru,KH85-3,59,1985,6,29,1,,29.583,137.167,345.3,2,353.8,2,-99,-9.9,1011.1,-99.9,25.5,2,-9.999,9,32.02
Hakuho-maru,KH85-3,60,1985,6,29,2,,29.783,137.25,345.1,2,355.5,2,-99,-9.9,1011.4,-99.9,25.4,2,-9.999,9,31.83
Hakuho-maru,KH85-3,61,1985,6,29,3,,30,137.333,345.3,2,347.9,2,-99,-9.9,1011.3,-99.9,25.2,2,-9.999,9,31.45
Hakuho-maru,KH85-3,63,1985,6,29,5,,30.383,137.5,-9.9,9,334.5,2,-99,-9.9,1011,-99.9,24.4,2,-9.999,9,29.98
Hakuho-maru,KH85-3,64,1985,6,29,6,,30.583,137.583,-9.9,9,334.1,2,-99,-9.9,1010.7,-99.9,24.1,2,-9.999,9,29.45
Hakuho-maru,KH85-3,65,1985,6,29,7,,30.767,137.667,344.8,2,331.4,2,-99,-9.9,1010.3,-99.9,24.1,2,-9.999,9,29.45
Hakuho-maru,KH85-3,66,1985,6,29,8,,30.967,137.767,344.9,2,331.5,2,-99,-9.9,1009.7,-99.9,23.7,2,-9.999,9,28.75
Hakuho-maru,KH85-3,67,1985,6,29,9,,31.167,137.883,344.3,2,333.1,2,-99,-9.9,1009.9,-99.9,23.7,2,-9.999,9,28.75
Hakuho-maru,KH85-3,68,1985,6,29,10,,31.35,137.983,344.7,2,331.4,2,-99,-9.9,1010.7,-99.9,24.3,2,-9.999,9,29.8
Hakuho-maru,KH85-3,69,1985,6,29,11,,31.55,138.083,344.5,2,334.2,2,-99,-9.9,1011.7,-99.9,24.1,2,-9.999,9,29.45
Hakuho-maru,KH85-3,70,1985,6,29,12,,31.733,138.2,344.3,2,333,2,-99,-9.9,1012.3,-99.9,25.7,2,-9.999,9,32.4
Hakuho-maru,KH85-3,71,1985,6,29,13,,31.933,138.3,345.2,2,333.9,2,-99,-9.9,1012,-99.9,26.2,2,-9.999,9,33.37
Hakuho-maru,KH85-3,72,1985,6,29,14,,32.117,138.417,345.1,2,333.5,2,-99,-9.9,1011.8,-99.9,26.1,2,-9.999,9,33.18
Hakuho-maru,KH85-3,73,1985,6,29,15,,32.3,138.517,345.7,2,312,2,-99,-9.9,1011.3,-99.9,26.3,2,-9.999,9,33.57
Hakuho-maru,KH85-3,74,1985,6,29,16,,32.517,138.6,345.7,2,314.6,2,-99,-9.9,1010.8,-99.9,23.1,2,-9.999,9,27.73
Hakuho-maru,KH85-3,75,1985,6,29,17,,32.733,138.667,345.4,2,314.6,2,-99,-9.9,1010.3,-99.9,22.3,2,-9.999,9,26.41
Hakuho-maru,KH85-3,76,1985,6,29,18,,32.933,138.75,345.5,2,317.6,2,-99,-9.9,1010.1,-99.9,22.1,2,-9.999,9,26.09
Hakuho-maru,KH85-3,77,1985,6,29,19,,33.15,138.817,344.7,2,317.4,2,-99,-9.9,1010.2,-99.9,21.8,2,-9.999,9,25.62
Hakuho-maru,KH85-3,78,1985,6,29,20,,33.367,138.917,345,2,321.9,2,-99,-9.9,1010.5,-99.9,22.5,2,-9.999,9,26.74
Hakuho-maru,KH85-3,79,1985,6,29,21,,33.6,139.033,344.6,2,323.2,2,-99,-9.9,1010.4,-99.9,23.1,2,-9.999,9,27.73
Hakuho-maru,KH85-3,80,1985,6,29,22,,33.817,139.133,344.6,2,327.5,2,-99,-9.9,1009.9,-99.9,23.6,2,-9.999,9,28.58
Hakuho-maru,KH85-3,81,1985,6,29,23,,34.033,139.233,345,2,317.6,2,-99,-9.9,1010.1,-99.9,24.2,2,-9.999,9,29.63
Hakuho-maru,KH85-3,82,1985,6,30,0,,34.233,139.333,344.8,2,319.3,2,-99,-9.9,1010.3,-99.9,23,2,-9.999,9,27.56
Hakuho-maru,KH85-3,83,1985,6,30,1,,34.45,139.433,344.8,2,309.8,2,-99,-9.9,1010.2,-99.9,22.8,2,-9.999,9,27.23
EOF,,,,,,,,,,,,,,,,,,,,,,
